Weather Roundup
Issued by NWS

Home | Current Version | Previous Version | Graphics & Text | Print | Product List | Glossary Off
Versions: 1 2 3 4 5 6 7 8 9 10 11 12 13 14 15 16 17 18 19 20 21 22 23 24 25 26 27 28 29 30 31 32 33 34 35 36 37 38 39 40 41 42 43 44 45 46 47 48 49 50

000
NZUS93 KARX 240259
HRRWXR

CURRENT HOURLY OBSERVATIONS ACROSS
MUCH OF THE UPPER MISSISSIPPI VALLEY
NATIONAL WEATHER SERVICE LA CROSSE WI
1000 PM CDT MON OCT 23 2017


...SOUTHEAST MINNESOTA...


CITY           SKY/WX    TMP DP  RH WIND       PRES   REMARKS
ROCHESTER      CLOUDY    46  30  53 NW21G35   29.80S
ROCHESTER/MAYO CLOUDY    47  29  49 NW21G36   29.80S
WINONA         CLOUDY    48  39  71 NW18G28   29.77S
AUSTIN         CLOUDY    46  30  53 NW16G25   29.82F
ALBERT LEA     NOT AVBL
DODGE CENTER   CLOUDY    46  28  49 NW22      29.82S
PRESTON        CLOUDY    46  32  58 N21G32    29.79R
OWATONNA       CLOUDY    48  30  49 NW18      29.84S
FARIBAULT      CLOUDY    48  30  49 NW14G23   29.85S
$$

...ELSEWHERE IN MINNESOTA...


CITY           SKY/WX    TMP DP  RH WIND       PRES   REMARKS
MINNEAPOLIS    CLOUDY    48  29  47 NW18G33   29.86R
INTNL FALLS    CLOUDY    41  31  67 N16G25    29.94S
DULUTH         PTCLDY    41  35  79 NW20G33   29.78F
RED WING       CLOUDY    48  30  49 NW12G23   29.81R
REDWOOD FALLS  MOCLDY    47  32  56 NW13G24   29.96R
MANKATO        NOT AVBL
WORTHINGTON    CLOUDY    48  35  60 NW22G31   29.98S
FAIRMONT       CLEAR     46  31  55 NW17      29.92S
$$

...SOUTHWEST WISCONSIN...


CITY           SKY/WX    TMP DP  RH WIND       PRES   REMARKS
LA CROSSE      CLOUDY    52  42  69 NW21G31   29.72F
PRAIRIE DU CHI CLOUDY    50  40  68 W9        29.74S
BOSCOBEL       CLOUDY    51  41  68 VRB3      29.72S
LONE ROCK      NOT AVBL
PLATTEVILLE    CLOUDY    48  43  82 W10G16    29.71F
FORT MC COY    CLOUDY    50  42  75 NW13      29.71S
MAUSTON-NEW LI CLOUDY    50  45  81 NW12G17   29.66S
VIROQUA        FAIR      47  42  82 NW9G17    29.71S
WIS DELLS      LGT RAIN  48  45  88 NW8       29.65S
$$

...ELSEWHERE IN WISCONSIN...


CITY           SKY/WX    TMP DP  RH WIND       PRES   REMARKS
MILWAUKEE      CLOUDY    51  45  79 W5        29.58F
MADISON        LGT RAIN  49  46  90 W7        29.64F
GREEN BAY      CLOUDY    49  48  97 NW5       29.57F
EAU CLAIRE     NOT AVBL
BLACK RVR FLS  RAIN      48  42  79 NW9G16    29.71R
MEDFORD        RAIN      46  44  91 NW16G23   29.67R
WAUSAU         LGT RAIN  49  46  90 NW9G22    29.61S
WIS RAPIDS     LGT RAIN  49  47  93 NW12      29.64F
MARSHFIELD     LGT RAIN  48  44  86 NW16      29.65S
RICE LAKE      CLOUDY    45  39  81 NW13G23   29.79S
$$

...NORTHEAST IOWA...


CITY           SKY/WX    TMP DP  RH WIND       PRES   REMARKS
WATERLOO       CLOUDY    49  30  48 NW24G32   29.81S
DUBUQUE        CLOUDY    47  41  80 NW14      29.74S
DECORAH        CLOUDY    48  37  66 NW16G29   29.75S
MASON CITY     CLOUDY    47  34  60 NW15      29.87S
CHARLES CITY   CLOUDY    48  30  49 NW15G26   29.82S
OELWEIN        CLOUDY    48  34  57 NW22G32   29.79S
$$

...ELSEWHERE IN IOWA...


CITY           SKY/WX    TMP DP  RH WIND       PRES   REMARKS
DES MOINES     CLOUDY    51  33  50 NW15      29.92F
IOWA CITY      LGT RAIN  51  38  60 NW20      29.82F
FORT DODGE     CLOUDY    49  32  52 NW12      29.92S
MARSHALLTOWN   LGT RAIN  48  37  65 NW12      29.86S
CEDAR RAPIDS   CLOUDY    49  35  58 NW21G33   29.80S
$$

...NORTHERN ILLINOIS...


CITY           SKY/WX    TMP DP  RH WIND       PRES   REMARKS
CHICAGO-OHARE  CLOUDY    52  46  80 W8        29.62F
CHICAGO-MIDWAY CLOUDY    53  48  83 W10       29.62F
MOLINE         PTCLDY    51  40  65 NW18G28   29.76R
ROCKFORD       LGT RAIN  50  47  89 NW9       29.69S
PEORIA         CLOUDY    52  48  86 W9        29.76S
$$

NOTE: "FAIR" INDICATES FEW OR NO CLOUDS BELOW 12,000 FEET WITH NO
SIGNIFICANT WEATHER AND/OR OBSTRUCTIONS TO VISIBILITY. WIND
SPEEDS ARE IN MILES-PER-HOUR.




USA.gov is the U.S. government's official web portal to all federal, state and local government web resources and services.